GFSMA_500_rhum_132.txt.gz
RH
29 30 30 30 28 30 27 28 37 32 15 13 12 11 11 23 21 14 10 16 15 25 27 35 33 60 74 78 88 93 85 89 70 62 49 66 67 63 65 65 68 68 66
32 29 31 31 32 30 33 29 36 22 17 15 16 23 22 21 22 18 9 9 12 13 19 24 26 34 47 45 67 76 75 73 97 91 53 61 70 60 58 64 65 69 71
55 36 30 31 32 31 34 34 35 28 18 17 18 28 34 19 30 14 14 8 6 6 10 16 20 29 35 35 58 59 70 68 81 87 98 57 62 67 53 56 63 65 70
66 39 33 32 33 32 32 37 36 34 24 18 20 19 21 24 31 18 16 13 11 8 6 13 20 32 28 39 42 40 41 55 82 78 87 96 58 77 72 54 55 60 66
92 46 36 36 36 35 34 38 41 36 25 20 19 21 31 24 26 23 21 19 15 11 8 6 10 17 19 29 36 53 56 43 58 49 76 93 98 76 87 78 53 54 57
98 87 47 38 35 38 35 35 39 42 32 24 22 21 27 33 32 26 22 20 17 17 14 8 8 10 11 13 20 34 44 41 45 45 50 65 94 97 97 92 84 53 48
87 97 85 46 37 38 38 38 39 41 38 31 26 23 25 24 26 26 24 24 22 22 21 19 12 9 11 11 9 14 25 28 37 31 30 35 48 59 83 96 96 74 50
70 92 96 71 42 39 39 40 37 41 40 33 31 26 25 26 29 28 27 26 25 26 25 25 25 18 11 10 12 11 8 8 15 20 27 32 27 36 42 68 97 96 82
72 84 96 94 48 50 41 43 42 40 43 38 33 30 29 29 29 30 31 30 29 27 27 30 29 28 26 19 11 10 12 10 9 8 19 24 32 29 34 52 91 98 99
43 85 87 96 66 52 43 43 46 44 42 45 39 34 34 33 32 31 33 35 34 34 30 29 30 31 31 28 26 17 11 12 15 12 12 59 65 66 56 52 48 56 92
15 67 84 100 97 60 50 44 48 47 45 45 46 42 38 36 34 36 37 39 39 38 36 34 32 31 31 33 31 31 25 14 10 12 12 20 71 76 67 69 42 44 85
11 28 89 96 98 86 64 51 50 51 52 52 48 48 45 41 39 42 44 44 46 45 50 49 46 41 36 35 35 31 30 25 16 11 10 11 16 37 67 70 39 38 71
8 15 52 100 96 98 64 67 57 55 53 58 53 50 52 50 49 50 52 54 52 54 55 53 55 52 42 41 39 33 30 30 26 21 13 10 12 11 9 50 77 66 69
9 9 30 98 90 100 79 68 75 63 58 59 60 55 55 55 56 55 54 55 57 60 60 65 67 68 70 84 65 45 45 37 35 36 35 16 9 11 13 10 28 79 79
8 9 17 54 96 94 100 73 83 75 66 62 65 66 59 60 58 59 53 51 55 56 59 54 74 74 81 91 96 92 74 70 57 50 51 45 64 29 11 12 13 44 82
7 10 15 24 96 96 96 84 79 83 75 69 71 68 63 63 62 63 57 57 57 66 71 84 86 78 84 91 96 98 97 83 72 59 61 67 71 74 62 45 14 12 51
8 8 12 27 68 94 96 95 76 77 79 89 81 73 69 71 69 58 62 68 79 80 83 97 84 83 82 93 96 97 97 98 98 83 61 57 70 78 80 74 59 12 19
10 7 10 34 79 95 98 97 95 79 82 74 72 71 69 76 70 61 90 82 86 95 98 100 88 85 72 77 95 95 84 81 95 99 94 69 70 77 72 73 74 45 10
26 7 9 18 66 83 79 96 94 95 96 79 75 70 82 85 78 80 79 89 100 98 97 94 95 76 74 70 58 77 71 56 64 88 95 96 86 82 79 72 70 69 20
38 8 10 32 97 96 95 96 96 96 96 95 88 89 100 91 88 81 77 89 92 98 99 100 94 82 74 73 74 76 70 60 61 72 68 89 87 82 72 72 64 63 60
48 12 17 71 93 97 97 97 96 96 96 97 92 96 99 96 95 98 87 99 93 96 95 95 93 84 76 65 65 66 60 52 39 46 76 83 83 64 56 49 66 66 60
88 70 50 32 98 95 98 97 98 98 97 98 99 98 98 98 98 96 94 92 98 96 95 97 86 71 64 64 63 55 49 42 37 41 96 59 61 65 66 56 48 43 49
87 84 83 89 99 100 98 84 98 97 98 97 97 97 98 97 97 93 97 84 79 62 46 36 26 26 30 33 33 45 51 32 26 24 41 86 43 36 42 46 54 51 50
42 80 97 100 97 98 100 99 99 97 96 98 97 96 98 91 85 80 64 62 45 29 23 18 15 14 11 11 12 16 36 33 27 32 41 27 27 35 36 49 49 56 65
86 86 82 93 93 90 97 98 99 100 99 98 98 92 74 60 63 62 50 46 43 35 22 24 24 20 26 27 20 15 27 45 42 42 83 42 28 29 35 30 37 38 54
43 49 58 60 62 73 82 91 96 87 72 68 70 73 70 68 66 64 58 43 41 33 26 29 27 22 27 33 32 31 26 26 25 26 30 77 66 33 26 25 22 27 49

GFSMA_500_rhum_138.txt.gz
RH
51 57 58 68 44 36 32 31 31 33 29 27 24 30 23 15 12 10 8 15 12 12 14 25 29 57 73 70 82 89 92 92 93 96 93 59 60 74 72 67 73 71 69
48 57 61 92 62 49 41 40 37 33 31 30 26 38 40 22 18 21 17 19 20 14 11 18 34 39 48 49 55 75 83 85 93 95 94 84 59 68 81 78 71 74 71
21 31 64 64 95 54 48 42 41 35 30 31 31 32 41 25 21 22 26 23 20 18 10 7 12 24 24 28 30 52 61 64 82 79 92 93 82 66 65 75 74 65 65
8 14 24 63 68 92 49 42 43 39 30 30 32 30 37 24 24 34 45 44 24 22 15 11 7 8 19 24 27 28 35 68 54 62 51 68 86 92 94 80 70 78 65
6 6 9 21 56 71 90 56 39 44 35 30 33 39 36 33 23 25 39 32 25 28 22 19 12 8 6 12 14 14 26 38 34 42 43 53 71 64 78 97 95 84 83
6 5 6 7 18 36 72 94 45 40 37 34 34 40 40 38 28 31 35 34 27 24 24 21 18 13 8 6 8 13 22 29 25 48 40 33 36 30 46 81 91 96 95
5 5 5 4 7 38 97 88 86 37 37 40 37 41 41 38 40 30 46 38 31 30 28 24 22 19 18 15 8 6 10 30 37 18 18 18 17 13 21 29 34 44 61
7 6 5 4 4 10 48 96 93 73 35 41 54 42 42 41 40 37 54 49 32 25 26 26 25 24 23 22 20 16 8 8 14 17 17 10 8 8 12 19 24 28 31
9 5 5 4 4 6 9 65 97 84 44 41 57 69 50 40 40 44 44 28 27 28 27 27 28 27 27 26 26 26 24 19 12 8 8 8 9 8 9 10 33 56 62
18 10 6 4 4 4 6 20 89 96 97 40 43 63 69 47 46 46 37 28 28 28 30 29 30 30 30 30 29 28 27 26 24 20 13 7 7 8 8 9 12 32 56
21 23 11 9 4 4 4 6 25 96 96 71 48 55 69 54 45 47 42 31 30 31 31 31 30 31 33 35 34 32 31 28 26 24 21 20 20 16 10 8 10 11 10
26 17 22 13 7 4 4 5 8 69 97 97 82 68 72 60 58 55 47 36 33 33 34 33 33 35 36 38 39 41 36 34 28 25 22 21 22 22 20 16 10 11 11
25 22 16 19 12 9 6 4 7 26 87 97 95 92 86 60 58 59 50 40 37 36 36 35 38 41 45 45 46 46 49 46 36 32 29 32 27 24 23 23 23 12 10
40 26 16 14 17 14 10 4 5 9 24 95 97 95 95 91 61 56 54 46 41 40 40 40 40 46 49 50 50 47 50 53 52 52 54 41 38 38 34 30 34 32 30
35 53 23 13 20 15 11 5 4 6 28 66 96 95 95 96 95 67 57 50 51 44 42 44 44 50 55 55 55 53 50 47 48 51 53 60 68 81 76 59 44 43 51
58 33 53 26 24 15 12 9 4 6 11 28 94 97 97 96 97 94 74 54 47 48 48 50 49 54 59 61 63 59 57 57 53 57 70 68 68 83 90 86 76 59 52
100 68 72 42 28 19 17 17 5 5 8 19 96 97 97 95 96 95 94 81 61 56 50 60 56 56 62 66 70 68 63 62 64 68 79 85 91 94 88 92 96 86 80
100 100 89 50 32 25 22 23 13 6 6 10 62 93 96 95 96 95 95 95 94 79 74 59 66 63 62 75 75 71 68 63 73 73 70 87 74 91 86 81 91 93 89
100 99 92 57 42 40 26 24 27 8 6 8 57 88 96 98 98 96 96 96 96 75 64 56 64 63 63 67 73 75 93 94 88 78 77 82 74 68 60 63 58 59 83
100 98 78 58 49 34 26 30 29 14 18 6 22 79 97 97 96 98 97 98 96 91 79 60 65 73 64 69 69 92 89 88 93 92 85 84 70 61 57 56 53 49 49
100 97 83 52 32 26 31 33 72 32 24 29 11 13 83 96 96 93 96 97 98 96 93 95 74 87 88 86 93 85 85 90 91 83 72 84 80 61 54 62 63 57 41
100 100 100 100 93 85 37 79 98 63 60 29 18 21 20 81 87 97 98 97 94 95 97 88 89 92 97 98 93 86 99 100 92 98 85 90 78 70 58 48 54 54 50
99 100 100 100 98 57 54 69 100 99 99 98 98 82 22 50 70 92 98 96 99 97 97 98 97 97 97 98 96 97 97 99 86 87 88 89 88 78 68 54 47 46 42
96 100 99 99 100 99 50 100 99 100 98 100 79 70 83 85 98 99 98 98 99 98 97 97 98 98 97 97 98 97 96 100 97 96 93 88 99 94 85 70 58 49 47
76 92 92 95 100 100 100 100 100 98 87 84 88 98 98 99 98 97 98 99 98 98 98 98 98 98 98 99 98 98 94 98 97 97 95 76 66 57 48 40 37 31 19
33 13 62 17 25 79 96 92 95 99 94 97 97 97 100 97 98 98 98 99 98 99 100 99 99 98 98 99 96 97 100 99 98 91 86 58 45 33 22 17 15 12 10

GFSMA_500_rhum_141.txt.gz
RH
9 14 25 48 62 50 57 62 35 34 37 30 28 28 22 22 20 12 10 8 11 13 14 18 33 34 58 81 77 87 92 96 96 87 80 74 55 58 56 70 74 66 67
7 7 9 16 26 57 56 69 68 31 34 33 30 30 29 26 33 19 13 11 10 17 16 11 21 40 52 49 65 67 75 90 95 92 90 91 90 65 54 61 73 66 71
8 7 8 8 10 20 46 56 82 54 34 35 35 33 32 28 40 36 17 17 19 18 20 16 9 12 30 41 39 35 59 72 74 86 89 90 94 94 62 57 68 74 73
8 6 6 7 8 8 14 28 58 95 49 39 44 41 32 32 30 40 22 20 23 25 20 19 12 7 9 18 30 26 33 36 47 55 69 64 74 82 88 93 79 68 74
6 6 6 6 6 7 7 9 22 78 95 49 45 46 39 32 30 34 26 24 34 46 27 22 18 14 9 7 10 24 17 18 44 41 33 38 39 69 78 76 92 98 84
3 3 3 4 5 6 7 7 12 30 92 73 44 55 46 38 32 29 31 22 27 50 25 27 23 20 14 10 6 11 22 19 30 42 50 52 36 32 42 31 40 79 93
10 7 6 4 3 4 5 7 9 13 94 92 44 49 49 40 31 31 33 24 24 33 28 26 24 21 19 15 11 8 11 15 32 29 24 39 28 25 20 16 23 30 31
11 10 9 12 9 4 4 6 6 11 22 78 81 59 55 41 35 39 38 38 34 41 35 32 28 24 22 21 20 18 14 9 16 30 33 20 16 12 12 10 14 18 25
18 13 11 12 16 11 6 4 6 6 10 90 97 85 52 38 48 55 42 46 35 43 40 37 28 26 26 25 24 24 23 22 18 14 10 8 8 8 8 9 9 10 14
22 24 17 12 14 14 8 6 5 6 6 15 95 98 59 48 50 53 45 47 45 53 51 33 25 24 26 27 27 27 26 27 26 24 21 18 11 7 7 7 7 8 9
25 33 32 19 12 13 10 6 7 6 6 6 34 97 93 58 45 60 48 47 46 53 35 28 26 26 27 30 30 30 29 29 28 29 27 25 21 19 15 12 9 7 8
30 26 24 30 20 13 15 9 7 6 7 6 7 59 95 72 54 71 67 48 47 46 32 29 28 30 30 31 34 35 34 34 32 29 28 26 24 22 23 25 23 18 11
22 26 19 24 25 19 18 12 11 10 7 7 20 28 94 96 64 68 84 56 52 51 37 31 29 30 30 32 36 40 40 38 37 35 34 28 24 22 21 22 25 24 23
30 28 34 27 30 30 21 18 16 11 10 6 4 6 40 97 91 81 88 67 53 49 46 35 32 32 33 35 40 42 39 42 48 48 43 38 35 39 40 34 28 28 29
36 37 35 35 39 30 26 23 23 23 12 8 4 4 25 96 96 96 96 96 75 58 52 40 35 35 36 36 39 42 45 47 49 50 48 48 48 51 58 58 52 59 47
36 38 30 48 40 38 34 27 23 21 13 13 5 4 6 66 96 97 97 96 84 68 60 47 40 38 39 38 40 44 48 54 56 51 50 50 51 50 65 72 73 72 80
52 90 82 81 68 52 48 27 26 24 20 17 10 5 4 16 92 96 97 96 95 89 68 53 46 44 42 43 43 46 53 56 63 62 61 59 62 61 71 81 82 86 82
85 99 100 81 59 47 51 39 33 38 24 14 12 6 4 6 31 95 98 97 97 96 94 81 68 60 48 48 48 50 55 60 59 63 64 55 63 68 75 80 90 88 86
92 99 100 100 100 65 62 48 49 24 20 17 17 8 4 5 7 41 92 97 98 97 97 96 94 95 82 70 57 54 55 58 65 56 52 53 73 72 66 83 82 79 70
87 100 100 100 92 72 56 48 35 25 23 23 26 12 4 4 13 71 97 96 98 98 98 97 98 97 95 90 84 76 61 59 63 65 62 68 82 94 85 85 81 66 56
100 100 100 100 100 87 60 48 40 30 24 20 22 11 4 4 5 10 44 95 97 98 97 97 98 97 97 94 88 82 70 70 67 77 67 87 92 98 88 84 74 64 57
100 100 100 91 74 100 58 40 27 18 41 68 98 82 8 4 6 6 44 87 98 97 97 97 98 97 97 97 91 84 79 81 74 73 75 85 94 97 81 74 77 72 59
100 100 100 99 100 99 84 80 64 100 100 100 95 100 53 31 12 8 10 22 86 85 95 94 97 98 98 96 97 96 97 95 98 97 97 97 90 96 94 95 82 76 74
66 98 100 100 100 100 99 91 96 100 100 100 99 98 98 91 56 24 20 18 24 84 93 85 95 97 98 97 97 98 99 95 96 96 92 95 98 97 98 94 91 83 80
21 51 88 92 96 100 97 100 100 100 99 100 99 99 99 100 100 100 100 78 64 69 67 91 95 98 98 98 97 97 97 97 96 97 97 98 98 97 98 93 96 90 86
13 9 15 55 80 80 68 90 86 97 100 99 99 100 100 100 98 100 99 99 100 100 100 100 99 99 98 99 99 97 99 97 97 97 97 98 97 98 100 98 97 99 100

GFSMA_500_rhum_147.txt.gz
RH
12 11 11 11 13 14 12 11 9 37 66 94 69 62 88 66 53 33 32 46 27 12 8 7 13 20 39 47 44 58 75 82 97 98 96 95 84 72 65 56 55 52 56
11 11 11 10 9 12 15 14 13 15 23 62 95 68 74 93 62 48 31 42 42 23 11 7 11 14 31 32 42 63 77 77 91 96 96 96 89 83 68 56 57 58 51
13 12 12 11 10 10 10 13 15 14 12 14 44 94 80 86 96 61 41 33 42 27 17 10 9 13 28 29 36 57 57 66 71 93 96 96 94 86 79 69 56 56 57
14 14 13 13 13 11 10 10 12 14 15 9 11 33 82 79 68 94 60 42 34 30 27 15 10 10 17 26 22 31 48 48 47 80 95 84 94 95 95 98 96 93 66
12 11 10 10 12 14 12 11 10 12 12 15 9 9 30 79 60 58 82 54 40 34 33 30 16 11 13 25 17 15 27 29 36 45 73 62 84 70 65 83 95 98 98
29 24 20 17 19 18 18 17 12 11 13 15 13 7 10 20 53 26 53 78 51 41 31 38 28 19 17 19 19 11 13 21 27 29 49 49 73 54 39 39 46 78 87
32 31 30 28 25 26 22 18 17 15 13 14 12 15 20 11 16 27 42 58 76 49 39 30 37 23 25 22 20 16 12 14 12 27 28 39 53 42 36 38 41 50 61
7 7 7 7 7 7 6 7 9 12 12 10 9 6 13 18 24 35 46 57 98 73 44 36 38 31 28 30 26 20 16 15 19 18 33 24 30 22 33 38 23 23 20
15 12 12 11 11 12 12 10 7 7 6 5 5 5 7 10 19 34 44 50 66 92 84 48 37 36 40 49 39 24 21 15 11 12 29 26 28 30 19 12 12 14 12
17 14 17 20 21 17 17 16 15 12 10 8 9 8 8 14 21 24 30 94 95 93 96 81 60 38 49 51 49 26 23 19 14 11 13 31 32 27 30 23 12 8 8
25 27 24 23 27 22 22 23 19 14 10 12 12 11 10 13 24 37 32 24 23 86 96 99 79 58 64 57 44 33 25 22 20 19 18 19 24 36 32 21 10 9 9
30 32 29 41 37 22 22 20 19 18 15 14 18 16 13 19 21 21 21 28 32 53 97 98 92 84 75 72 54 36 29 26 24 24 24 24 23 30 44 29 19 14 10
24 20 20 21 28 24 24 21 20 23 20 21 24 19 14 16 24 28 20 16 21 41 75 97 94 82 80 84 71 50 32 29 26 26 26 26 28 28 27 28 29 27 25
33 32 29 26 22 21 21 30 26 26 25 27 29 29 32 19 29 36 26 12 10 25 66 98 94 95 76 80 74 67 38 31 25 26 26 26 28 29 30 30 31 31 30
44 39 41 44 38 32 30 30 39 33 25 26 23 26 28 32 34 36 41 21 9 8 13 90 96 94 87 77 73 73 55 33 25 24 26 26 29 32 32 32 32 32 31
37 29 34 52 53 48 42 36 37 31 31 26 22 22 26 36 45 44 45 27 34 11 5 13 67 97 95 80 68 69 70 45 30 25 27 29 30 34 34 36 37 46 44
37 33 38 51 53 36 43 64 64 52 33 38 36 26 36 40 56 59 52 43 48 39 30 34 45 92 97 92 72 66 67 65 34 40 31 33 35 36 37 38 44 47 50
49 51 52 69 72 52 77 89 81 66 44 47 53 49 50 34 31 58 48 57 70 65 46 46 89 77 96 97 93 72 65 76 55 42 41 36 32 36 41 42 43 43 47
44 61 64 80 80 87 96 100 98 72 65 76 81 67 42 37 42 49 36 46 68 69 60 49 70 96 96 96 94 97 87 71 80 63 51 47 52 44 47 47 51 52 54
78 66 70 80 93 97 100 100 100 100 85 72 81 74 60 57 50 41 36 18 19 26 91 100 99 93 87 96 97 96 94 95 86 91 72 70 54 64 59 57 57 53 54
96 92 71 69 100 100 94 89 100 95 88 83 69 54 35 39 48 42 37 25 20 18 17 61 97 54 47 95 97 94 93 97 95 95 96 92 82 64 57 62 65 59 56
40 96 100 100 100 100 96 100 65 54 70 60 54 47 47 44 33 28 20 18 17 16 13 11 11 16 46 95 98 95 97 98 97 97 97 95 94 92 71 57 46 54 55
38 22 78 100 100 100 100 100 85 93 56 37 28 26 24 22 20 20 19 20 20 15 10 13 21 17 41 73 96 98 97 99 97 97 97 97 97 96 93 79 72 54 51
91 18 19 50 98 100 100 100 100 100 100 77 63 66 40 38 36 34 37 38 29 98 80 62 99 76 68 92 99 93 98 98 97 97 97 98 97 96 96 96 92 86 83
26 29 15 19 60 86 96 96 98 100 100 100 100 100 100 100 100 100 100 94 40 94 100 94 60 99 83 100 86 98 99 98 98 98 98 98 97 98 94 97 95 98 96
22 48 19 19 17 29 50 66 87 68 69 93 99 100 99 100 100 100 100 100 72 100 100 74 100 95 100 100 94 97 80 94 95 97 98 96 95 97 98 100 98 98 99

GFSMA_500_rhum_150.txt.gz
RH
9 9 10 11 11 11 12 13 14 13 12 16 14 30 65 92 82 90 74 60 34 34 55 48 12 8 24 28 47 50 48 58 71 85 99 89 96 74 77 68 70 59 54
12 10 10 10 10 11 12 12 13 14 13 13 18 14 17 60 94 78 96 69 54 36 46 51 21 8 20 23 32 46 46 69 80 82 94 98 99 86 72 69 67 59 54
14 14 14 14 13 13 13 12 12 12 12 12 12 15 15 13 32 83 90 94 64 43 44 55 46 12 9 20 24 36 39 60 65 73 84 97 95 96 87 79 75 64 59
13 12 12 12 12 13 13 13 12 11 11 12 12 12 15 14 11 23 63 88 95 67 37 42 38 21 11 13 21 35 34 47 59 58 45 94 97 96 95 84 80 72 60
6 5 6 9 9 8 10 10 10 11 10 10 10 12 12 14 14 12 38 84 91 78 52 42 36 29 19 11 14 30 30 32 40 41 41 72 81 89 95 96 97 97 98
7 8 6 6 10 10 10 9 8 11 9 11 9 9 13 16 22 14 12 50 62 74 64 51 48 30 32 18 14 20 33 23 23 32 34 33 61 62 83 76 64 71 92
36 37 36 26 22 23 22 23 22 18 19 16 15 12 14 16 14 15 13 12 56 97 61 75 66 46 36 34 20 22 27 23 16 20 26 27 33 44 60 54 34 35 40
16 9 8 8 9 10 8 19 26 26 25 26 23 23 16 16 14 13 18 12 33 70 80 74 67 80 40 40 34 27 26 23 18 20 20 23 25 32 44 36 32 35 34
8 12 6 5 6 10 13 11 10 9 10 11 12 15 15 17 13 12 14 18 20 30 76 89 94 73 68 42 41 28 29 28 21 16 20 18 31 28 30 24 28 35 26
18 18 18 19 17 16 14 15 15 13 11 10 11 9 8 10 13 11 13 13 15 20 43 78 78 96 83 58 54 40 35 39 28 22 17 17 23 37 30 34 24 18 14
17 17 20 22 26 24 24 24 23 20 19 14 15 17 12 9 8 9 15 18 15 14 19 89 95 100 84 70 73 59 43 54 42 26 22 15 10 18 30 36 34 29 16
24 17 20 20 20 21 21 29 38 33 20 20 18 17 15 14 12 9 11 29 29 17 18 37 87 73 86 87 86 69 49 60 55 30 24 20 16 12 26 35 33 27 25
26 37 34 41 38 35 32 26 25 27 28 24 20 16 20 16 12 13 19 22 42 44 37 28 29 40 52 82 92 70 53 66 57 37 27 23 21 21 19 21 28 48 33
18 28 40 34 30 25 24 28 26 22 20 19 23 18 15 22 20 18 17 36 37 43 46 32 29 36 68 89 95 93 59 66 64 44 28 26 25 24 25 25 26 28 30
6 18 24 24 24 26 30 30 27 27 29 29 42 40 19 24 24 25 23 26 45 48 36 28 26 42 42 60 95 97 93 73 72 59 34 30 27 26 26 28 28 30 29
5 9 23 39 37 40 42 34 28 30 28 41 37 42 37 31 28 29 29 32 41 47 34 26 20 21 21 32 84 96 97 92 79 78 52 36 30 28 28 29 31 31 31
5 5 9 36 45 43 41 49 46 39 43 42 46 42 43 42 35 29 26 28 50 57 49 47 22 17 12 13 43 54 94 96 83 85 73 48 38 29 29 30 31 33 35
7 4 9 20 54 47 50 71 70 59 94 87 91 79 40 41 42 38 29 41 60 60 55 68 49 24 22 31 17 81 97 97 89 85 90 72 55 35 30 31 30 32 34
14 21 9 24 47 50 72 73 78 82 95 92 100 76 69 66 64 85 42 63 96 70 85 71 55 56 53 40 98 93 96 93 95 88 88 80 79 64 44 32 30 30 33
22 47 42 50 60 46 79 80 94 100 96 100 100 100 100 98 98 77 60 59 56 51 58 79 65 83 72 91 80 72 60 96 97 98 96 94 93 95 75 66 36 32 45
38 54 47 85 77 65 86 93 92 99 100 100 100 99 99 89 73 65 63 46 33 43 66 56 59 73 92 98 98 98 97 97 96 96 97 97 96 96 95 91 76 78 68
46 56 62 38 100 100 98 94 100 94 89 100 100 100 100 86 99 66 59 45 38 45 50 39 36 35 76 95 82 91 100 100 97 96 100 98 96 95 96 96 95 83 75
69 42 38 72 28 98 100 100 100 99 98 67 79 97 99 100 97 82 69 60 54 46 45 38 20 17 20 67 84 93 85 94 92 95 96 97 95 97 96 96 96 94 91
96 36 21 45 20 23 89 100 100 100 100 100 100 82 42 56 66 58 49 45 39 25 22 21 20 17 16 14 31 74 99 95 90 96 97 96 97 100 100 98 97 96 94
100 63 26 30 28 19 28 87 98 100 100 100 100 100 99 90 55 32 30 33 31 30 30 28 25 24 21 66 63 19 59 97 95 96 98 98 96 98 97 98 98 98 97
97 97 46 31 41 31 24 26 69 98 99 92 99 100 100 100 100 100 100 91 86 66 44 58 70 74 75 100 100 100 32 69 67 92 99 99 97 96 97 98 98 99 99